Location: Churchill Northern Studies Centre
(58.7378°N, 93.8201°W)
Time: 05:28:50
(UTC-05:00)

Envisat - Pass Details

Date: 13 October 2017
Orbit: 764 x 766 km, 98.2° (Epoch: 20 October)

Event Time Altitude Azimuth Distance (km) Brightness Sun altitude
Exits shadow 19:56:59 13° 138° (SE) 2,133 4.9 -14.2°
Maximum altitude 20:01:28 53° 64° (ENE) 941 3.1 -14.7°
Drops below altitude 10° 20:06:25 10° 349° (N) 2,317 5.8 -15.4°
Sets 20:08:46 0° 345° (NNW) 3,248 6.6 -15.7°
